SCP
0 0 0 0 0 0 0 0 0 0 0 0 0 0 0 0 0 0 0 0 0 0
0 0 0 0 0 0 0 0 0 0 0 0 0 0 0 0 0 0 0 0 0 0
0 0 0 0 0 0 0 0 0 0 0 0 0 0 0 0 0 0 0 0 0 0
1 0 0 0 0 0 0 0 0 0 0 0 0 0 0 0 0 0 0 0 0 0
0 0 0 0 0 0 0 0 0 0 0 0 0 0 0 0 0 0 0 0 0 0
0 0 0 0 0 0 0 0 0 0 0 0 0 0 0 0 0 0 0 0 0 0
0 0 0 -0 0 0 0 0 0 0 0 0 0 0 0 0 0 0 0 0 0 0
0 0 0 0 0 0 0 0 0 0 0 0 0 0 0 0 0 0 0 0 0 0
0 0 0 0 0 0 0 0 0 0 0 0 0 0 0 0 0 0 0 0 0 0
0 0 0 0 0 0 0 0 0 0 0 0 0 0 0 0 0 0 0 0 0 0
0 0 0 0 0 0 0 0 0 0 0 0 0 0 0 0 0 0 0 0 0 0
0 0 0 0 0 0 0 0 0 0 0 0 0 0 0 0 0 0 0 0 0 0
0 0 0 0 0 0 0 0 0 0 0 0 0 0 0 0 0 0 0 0 0 0
0 0 0 0 0 0 0 0 0 0 0 0 0 0 0 0 0 0 0 0 0 0
Wind_Speed_500mb
31 32 37 40 36 33 34 31 28 28 26 29 32 31 29 27 28 33 34 30 38 41
28 27 24 33 38 40 36 35 37 30 29 28 29 31 30 31 35 38 35 38 40 41
31 30 21 20 31 36 35 36 34 33 32 32 32 34 36 35 38 39 39 40 39 39
33 30 26 15 26 32 34 34 37 34 33 34 34 41 40 40 40 41 39 39 42 45
34 33 27 17 22 27 33 34 34 34 36 39 39 40 40 43 39 39 38 41 43 39
24 23 23 24 24 31 31 28 32 32 36 32 34 40 43 40 40 39 43 40 35 33
17 22 24 26 31 30 25 22 22 27 33 37 39 41 39 40 38 35 38 34 29 27
24 20 18 23 29 28 27 24 27 28 30 40 44 38 33 37 37 38 36 30 26 28
29 28 22 20 27 29 32 41 31 36 39 38 37 33 34 35 38 36 33 33 35 37
25 29 25 21 13 13 18 25 26 32 34 24 31 32 32 34 38 37 38 39 41 43
19 18 17 14 11 8 6 11 18 23 27 32 34 33 33 35 41 45 44 43 46 53
15 12 21 19 19 19 19 20 21 25 31 36 37 34 33 36 45 49 50 51 54 57
14 17 21 22 24 24 24 24 24 28 29 31 35 30 31 35 43 53 56 59 56 48
20 25 26 27 27 28 28 27 28 33 33 35 35 37 35 37 44 52 56 58 60 63
Wind_Direction_500mb
274 258 253 261 265 264 262 264 252 252 253 242 236 242 242 251 264 277 275 280 289 284
258 253 265 255 258 262 263 259 260 248 251 244 241 236 243 265 273 281 278 277 281 282
254 245 256 270 267 266 268 265 263 254 251 247 243 239 252 269 271 271 272 280 281 280
252 247 247 276 281 263 265 266 257 254 247 247 248 249 262 270 274 272 276 284 280 282
260 262 251 250 262 256 261 261 250 249 253 256 255 260 270 275 272 273 279 282 283 280
282 257 250 252 250 262 268 258 249 249 252 260 266 267 274 271 274 283 286 288 283 283
278 285 268 260 273 277 260 252 254 249 252 259 270 272 271 270 269 282 288 283 283 285
339 320 286 273 276 279 257 244 246 251 268 272 277 279 281 272 274 286 284 278 278 287
33 26 355 313 292 277 269 266 263 257 266 274 279 291 289 278 282 286 286 287 281 287
4 3 1 11 2 304 277 271 283 267 284 280 285 287 278 271 270 273 283 286 286 288
17 41 25 9 1 351 330 288 279 281 284 282 281 283 273 266 268 274 281 285 289 291
30 12 356 0 344 331 319 310 305 301 296 294 294 292 288 281 280 283 287 291 292 294
343 332 331 329 332 332 325 317 315 316 318 314 312 307 295 290 284 285 290 295 298 293
324 320 319 317 312 315 317 312 311 313 314 308 306 304 302 297 292 292 293 294 298 297
Wind_Speed_850mb
31 32 37 40 36 33 34 31 28 28 26 29 32 31 29 27 28 33 34 30 38 41
28 27 24 33 38 40 36 35 37 30 29 28 29 31 30 31 35 38 35 38 40 41
31 30 21 20 31 36 35 36 34 33 32 32 32 34 36 35 38 39 39 40 39 39
33 30 26 15 26 32 34 34 37 34 33 34 34 41 40 40 40 41 39 39 42 45
34 33 27 17 22 27 33 34 34 34 36 39 39 40 40 43 39 39 38 41 43 39
24 23 23 24 24 31 31 28 32 32 36 32 34 40 43 40 40 39 43 40 35 33
17 22 24 26 31 30 25 22 22 27 33 37 39 41 39 40 38 35 38 34 29 27
24 20 18 23 29 28 27 24 27 28 30 40 44 38 33 37 37 38 36 30 26 28
29 28 22 20 27 29 32 41 31 36 39 38 37 33 34 35 38 36 33 33 35 37
25 29 25 21 13 13 18 25 26 32 34 24 31 32 32 34 38 37 38 39 41 43
19 18 17 14 11 8 6 11 18 23 27 32 34 33 33 35 41 45 44 43 46 53
15 12 21 19 19 19 19 20 21 25 31 36 37 34 33 36 45 49 50 51 54 57
14 17 21 22 24 24 24 24 24 28 29 31 35 30 31 35 43 53 56 59 56 48
20 25 26 27 27 28 28 27 28 33 33 35 35 37 35 37 44 52 56 58 60 63
Wind_Direction_850mb
274 258 253 261 265 264 262 264 252 252 253 242 236 242 242 251 264 277 275 280 289 284
258 253 265 255 258 262 263 259 260 248 251 244 241 236 243 265 273 281 278 277 281 282
254 245 256 270 267 266 268 265 263 254 251 247 243 239 252 269 271 271 272 280 281 280
252 247 247 276 281 263 265 266 257 254 247 247 248 249 262 270 274 272 276 284 280 282
260 262 251 250 262 256 261 261 250 249 253 256 255 260 270 275 272 273 279 282 283 280
282 257 250 252 250 262 268 258 249 249 252 260 266 267 274 271 274 283 286 288 283 283
278 285 268 260 273 277 260 252 254 249 252 259 270 272 271 270 269 282 288 283 283 285
339 320 286 273 276 279 257 244 246 251 268 272 277 279 281 272 274 286 284 278 278 287
33 26 355 313 292 277 269 266 263 257 266 274 279 291 289 278 282 286 286 287 281 287
4 3 1 11 2 304 277 271 283 267 284 280 285 287 278 271 270 273 283 286 286 288
17 41 25 9 1 351 330 288 279 281 284 282 281 283 273 266 268 274 281 285 289 291
30 12 356 0 344 331 319 310 305 301 296 294 294 292 288 281 280 283 287 291 292 294
343 332 331 329 332 332 325 317 315 316 318 314 312 307 295 290 284 285 290 295 298 293
324 320 319 317 312 315 317 312 311 313 314 308 306 304 302 297 292 292 293 294 298 297